When you browse on this site, cookies collect data to enhance your experience and personalize the content and advertising you see.
Visit our Privacy Policy to learn more. By continuing to use the site, you agree to this use of cookies and data.
  • In Portugal
  • List of Countries
  • For 7 days
  • Water Temperature
  • Satellite Maps
  • Weather Map
  • Weather Widgets
  • user-avatar
    Login

    Hourly Weather Arbela

    Today, 22 January, Tuesday

    Time Temperature Precipitation Wind Pressure Humidity
    00:00 +7°C° 0 mm 1 mps 729 mmHg 43%
    01:00 +6°C° 0 mm 1 mps 729 mmHg 42%
    02:00 +6°C° 0 mm 1 mps 729 mmHg 42%
    03:00 +6°C° 0 mm 1 mps 729 mmHg 42%
    04:00 +6°C° 0 mm 1 mps 729 mmHg 41%
    05:00 +5°C° 0 mm 1 mps 729 mmHg 41%
    06:00 +5°C° 0 mm 1 mps 729 mmHg 41%
    07:00 +6°C° 0 mm 1 mps 729 mmHg 39%
    08:00 +7°C° 0 mm 1 mps 729 mmHg 38%
    09:00 +8°C° 0 mm 1 mps 729 mmHg 33%
    10:00 +9°C° 0 mm 1 mps 729 mmHg 31%
    11:00 +11°C° 0 mm 1 mps 729 mmHg 29%
    12:00 +11°C° 0 mm 0 mps 728 mmHg 27%
    13:00 +11°C° 0 mm 0 mps 728 mmHg 26%
    14:00 +12°C° 0 mm 0 mps 728 mmHg 25%
    15:00 +12°C° 0 mm 0 mps 728 mmHg 25%
    16:00 +12°C° 0 mm 1 mps 728 mmHg 29%
    17:00 +11°C° 0 mm 1 mps 728 mmHg 33%
    18:00 +10°C° 0 mm 1 mps 728 mmHg 37%
    19:00 +9°C° 0 mm 1 mps 728 mmHg 39%
    20:00 +9°C° 0 mm 1 mps 728 mmHg 41%
    21:00 +8°C° 0 mm 1 mps 728 mmHg 43%
    22:00 +8°C° 0 mm 1 mps 728 mmHg 43%
    23:00 +8°C° 0 mm 1 mps 728 mmHg 44%

    Tomorrow, 23 January, Wednesday

    Time Temperature Precipitation Wind Pressure Humidity
    00:00 +7°C° 0 mm 1 mps 728 mmHg 45%
    01:00 +7°C° 0 mm 1 mps 728 mmHg 46%
    02:00 +7°C° 0 mm 1 mps 728 mmHg 46%
    03:00 +6°C° 0 mm 2 mps 728 mmHg 46%
    04:00 +6°C° 0 mm 2 mps 728 mmHg 47%
    05:00 +5°C° 0 mm 2 mps 728 mmHg 47%
    06:00 +5°C° 0 mm 2 mps 728 mmHg 47%
    07:00 +6°C° 0 mm 2 mps 729 mmHg 46%
    08:00 +7°C° 0 mm 2 mps 729 mmHg 44%
    09:00 +8°C° 0 mm 2 mps 729 mmHg 43%
    10:00 +10°C° 0 mm 1 mps 729 mmHg 39%
    11:00 +12°C° 0 mm 1 mps 729 mmHg 35%
    12:00 +13°C° 0 mm 1 mps 729 mmHg 31%
    13:00 +14°C° 0 mm 1 mps 728 mmHg 30%
    14:00 +14°C° 0 mm 1 mps 728 mmHg 30%
    15:00 +14°C° 0 mm 0 mps 728 mmHg 29%
    16:00 +13°C° 0 mm 0 mps 728 mmHg 33%
    17:00 +12°C° 0 mm 1 mps 728 mmHg 38%
    18:00 +11°C° 0 mm 1 mps 728 mmHg 43%
    19:00 +11°C° 0 mm 1 mps 728 mmHg 44%
    20:00 +11°C° 0 mm 1 mps 729 mmHg 45%
    21:00 +9°C° 0 mm 2 mps 729 mmHg 46%
    22:00 +9°C° 0 mm 2 mps 729 mmHg 47%
    23:00 +9°C° 0 mm 2 mps 729 mmHg 47%

    Day after tomorrow, 24 January, Thursday

    Time Temperature Precipitation Wind Pressure Humidity
    00:00 +8°C° 0 mm 2 mps 729 mmHg 48%
    01:00 +8°C° 0 mm 2 mps 729 mmHg 48%
    02:00 +8°C° 0 mm 2 mps 729 mmHg 48%
    03:00 +8°C° 0 mm 2 mps 729 mmHg 49%
    04:00 +7°C° 0 mm 2 mps 729 mmHg 49%
    05:00 +7°C° 0 mm 2 mps 729 mmHg 50%
    06:00 +7°C° 0 mm 2 mps 729 mmHg 51%
    07:00 +8°C° 0 mm 2 mps 729 mmHg 50%
    08:00 +9°C° 0 mm 2 mps 730 mmHg 49%
    09:00 +10°C° 0 mm 2 mps 730 mmHg 48%
    10:00 +12°C° 0 mm 2 mps 730 mmHg 44%
    11:00 +13°C° 0 mm 3 mps 730 mmHg 39%
    12:00 +14°C° 0 mm 3 mps 730 mmHg 35%
    13:00 +16°C° 0 mm 3 mps 729 mmHg 34%
    14:00 +16°C° 0 mm 3 mps 729 mmHg 33%
    15:00 +17°C° 0 mm 3 mps 728 mmHg 32%
    16:00 +14°C° 0 mm 3 mps 729 mmHg 36%
    17:00 +14°C° 0 mm 2 mps 729 mmHg 40%
    18:00 +13°C° 0 mm 2 mps 729 mmHg 44%
    19:00 +12°C° 0 mm 2 mps 729 mmHg 45%
    20:00 +12°C° 0 mm 2 mps 729 mmHg 46%
    21:00 +10°C° 0 mm 3 mps 729 mmHg 47%
    22:00 +10°C° 0 mm 3 mps 729 mmHg 46%
    23:00 +10°C° 0 mm 3 mps 729 mmHg 45%

    25 January, Friday

    Time Temperature Precipitation Wind Pressure Humidity
    00:00 +10°C° 0 mm 3 mps 729 mmHg 45%
    01:00 +10°C° 0 mm 3 mps 729 mmHg 44%
    02:00 +10°C° 0 mm 3 mps 728 mmHg 44%
    03:00 +10°C° 0 mm 3 mps 728 mmHg 43%
    04:00 +10°C° 0 mm 3 mps 728 mmHg 44%
    05:00 +10°C° 0 mm 3 mps 728 mmHg 45%
    06:00 +10°C° 0 mm 3 mps 727 mmHg 46%
    07:00 +10°C° 0 mm 4 mps 727 mmHg 46%
    08:00 +11°C° 0 mm 4 mps 728 mmHg 45%
    09:00 +11°C° 0 mm 4 mps 728 mmHg 45%
    10:00 +13°C° 0 mm 5 mps 728 mmHg 41%
    11:00 +14°C° 0 mm 5 mps 727 mmHg 37%
    12:00 +16°C° 0 mm 5 mps 727 mmHg 33%
    13:00 +16°C° 0 mm 5 mps 727 mmHg 33%
    14:00 +17°C° 0 mm 5 mps 727 mmHg 32%
    15:00 +18°C° 0 mm 4 mps 726 mmHg 31%
    16:00 +17°C° 0 mm 4 mps 727 mmHg 36%
    17:00 +14°C° 0 mm 3 mps 727 mmHg 40%
    18:00 +14°C° 0 mm 2 mps 727 mmHg 45%
    19:00 +12°C° 0 mm 3 mps 727 mmHg 46%
    20:00 +12°C° 0 mm 3 mps 727 mmHg 47%
    21:00 +11°C° 0 mm 3 mps 728 mmHg 48%
    22:00 +11°C° 0 mm 3 mps 728 mmHg 48%
    23:00 +11°C° 0 mm 4 mps 728 mmHg 49%

    26 January, Saturday

    Time Temperature Precipitation Wind Pressure Humidity
    00:00 +11°C° 0 mm 4 mps 728 mmHg 49%
    01:00 +10°C° 0 mm 4 mps 728 mmHg 50%
    02:00 +10°C° 0 mm 4 mps 728 mmHg 51%
    03:00 +10°C° 0 mm 4 mps 727 mmHg 52%
    04:00 +10°C° 0 mm 4 mps 727 mmHg 52%
    05:00 +10°C° 0 mm 4 mps 727 mmHg 53%
    06:00 +10°C° 0 mm 3 mps 727 mmHg 53%
    07:00 +11°C° 0 mm 3 mps 727 mmHg 52%
    08:00 +12°C° 0 mm 3 mps 728 mmHg 51%
    09:00 +12°C° 0 mm 3 mps 728 mmHg 49%
    10:00 +14°C° 0 mm 4 mps 728 mmHg 46%
    11:00 +17°C° 0 mm 4 mps 727 mmHg 43%
    12:00 +19°C° 0 mm 5 mps 727 mmHg 40%
    13:00 +19°C° 0 mm 4 mps 727 mmHg 41%
    14:00 +19°C° 0 mm 4 mps 726 mmHg 41%
    15:00 +19°C° 0 mm 3 mps 725 mmHg 42%
    16:00 +18°C° 0 mm 3 mps 725 mmHg 44%
    17:00 +17°C° 0 mm 3 mps 725 mmHg 47%
    18:00 +16°C° 0 mm 3 mps 725 mmHg 50%
    19:00 +16°C° 0.1 mm 3 mps 725 mmHg 51%
    20:00 +16°C° 0.1 mm 3 mps 725 mmHg 52%
    21:00 +14°C° 0.1 mm 4 mps 725 mmHg 53%
    22:00 +14°C° 1.2 mm 4 mps 725 mmHg 59%
    23:00 +14°C° 1.2 mm 3 mps 724 mmHg 65%

    27 January, Sunday

    Time Temperature Precipitation Wind Pressure Humidity
    00:00 +13°C° 1.2 mm 3 mps 724 mmHg 71%
    01:00 +13°C° 0.6 mm 3 mps 724 mmHg 72%
    02:00 +13°C° 0.6 mm 3 mps 724 mmHg 73%
    03:00 +13°C° 0.6 mm 3 mps 724 mmHg 74%
    04:00 +12°C° 0.6 mm 3 mps 724 mmHg 76%
    05:00 +12°C° 0.6 mm 3 mps 724 mmHg 78%
    06:00 +12°C° 0.6 mm 3 mps 724 mmHg 80%
    07:00 +13°C° 0.2 mm 4 mps 725 mmHg 77%
    08:00 +13°C° 0.2 mm 4 mps 725 mmHg 75%
    09:00 +13°C° 0.2 mm 4 mps 726 mmHg 73%
    10:00 +14°C° 0 mm 5 mps 726 mmHg 72%
    11:00 +15°C° 0 mm 5 mps 726 mmHg 71%
    12:00 +15°C° 0 mm 5 mps 726 mmHg 69%
    13:00 +17°C° 0 mm 4 mps 725 mmHg 69%
    14:00 +17°C° 0 mm 3 mps 725 mmHg 68%
    15:00 +17°C° 0 mm 2 mps 725 mmHg 68%
    16:00 +16°C° 0.1 mm 3 mps 725 mmHg 70%
    17:00 +16°C° 0.1 mm 3 mps 725 mmHg 73%
    18:00 +14°C° 0.1 mm 3 mps 725 mmHg 75%
    19:00 +13°C° 0.4 mm 3 mps 725 mmHg 78%
    20:00 +13°C° 0.4 mm 3 mps 725 mmHg 81%
    21:00 +12°C° 0.4 mm 3 mps 725 mmHg 84%
    22:00 +12°C° 0.6 mm 3 mps 725 mmHg 84%
    23:00 +13°C° 0.6 mm 3 mps 725 mmHg 85%
    Show more